Simultaneous Nadir Overpasses (SNOs) Predictions

Prediction of SNOs between GOES-16 and TERRA Satellite Orbit:

Table of predicted SNOs for the next 14.0 days since TLE Epoch: 8/10/2019
Index Date Time (GOES-16) GOES-16 Lat,Lon TERRA Lat,Lon Distance(km) Time Diff (sec)
1 08/10/2019 03:15:59 -0.02, -75.17 0.73, -71.58 407.49 11
2 08/10/2019 15:38:45 0.02, -75.18 0.34, -76.74 177.90 80
3 08/12/2019 15:23:53 0.02, -75.17 -0.27, -73.78 158.19 80
4 08/13/2019 03:47:57 -0.03, -75.17 -0.83, -78.97 432.95 80
5 08/14/2019 15:11:42 0.02, -75.18 -0.89, -70.82 494.91 80
6 08/15/2019 03:35:45 -0.03, -75.17 -0.21, -76.02 96.05 80
7 08/17/2019 03:20:53 -0.03, -75.18 0.41, -73.06 241.58 80
8 08/17/2019 15:44:49 0.03, -75.20 0.66, -78.22 343.28 80
9 08/19/2019 15:29:57 0.03, -75.22 0.03, -75.26 4.87 80
10 08/21/2019 15:17:45 0.03, -75.24 -0.60, -72.30 334.22 80
11 08/22/2019 03:41:49 -0.03, -75.24 -0.50, -77.50 256.07 80




NCC Satellite Simultaneous Nadir Overpasses (SNOs) Prediction Service
